DECAYED
Showing default

EIVE, 56937 (Decayed)

Orbit data source: Space-Track

EIVE, 56937 was a payload satellite owned by IRS Stuttgart (DE) in LEO that was launched on Mon, 12 Jun 2023 UTC via an FALCON 9 launch vehicle from the Air Force Western Test Range (AFWTR). Payload-class satellites include a variety of spacecraft equipped with specific instruments for various scientific and technological missions. These include communications satellites like Starlink; space stations such as the ISS; scientific satellites like the Hubble; Earth observation satellites from companies like Planet Labs, Umbra, and HawkEye 360; GPS; miniature CubeSats for education and research; and military/defense satellites.

Not visible in the next 10 days
Identifier
56937, 2023-084F
Orbit
Decayed
Country
Flag of DEDE / GER
Related business
Manufacturer
IRS Stuttgart
Mission
Decayed Amateur Technology
Bus & Motor
CUBESAT 6U, Unknown motor
Mass
10 kg wet, 10 kg dry
Launch date (UTC)
2023-06-12 (3 years ago)
Launch vehicle
FALCON 9
Launch site
Air Force Western Test Range (AFWTR)
Object type
Payload
Rocket body
Debris
Shape & HBR
Box, 0.1 m
Radar Cross Section
0.080 m², Medium (>0.1 m² and < 1m²)

Expand to show TLE details & history
Last TLE update: 10 months ago

TLE from 10 months ago
0 EIVE
1 56937U 23084F   25099.34660221  .07763351  25571-5  18278-2 0  9991
2 56937  97.5157 237.0989 0012765 277.1321  82.8521 16.29514234101968
Epoch: 2025-04-09T08:19Z
TLE epoch observation values (Epoch: 2025-04-09T08:19:06.430Z)
Latitude
-0.00005°
Longitude
-85.51252°
Altitude
196.046 km
Speed
7.789 km/s
True Right ascension
15h 48m 23s
True Declination
0° 00' 00"
Sunlit
Object was in full shadow at epoch
Visualization orbit readout
Latitude
Unknown
Longitude
Unknown
Altitude
Unknown
Speed
Unknown
Apparent Right ascension
Unknown
Apparent Declination
Unknown
Sunlit
N/A
Visualization observer readout
Local Sidereal Time
04:13:04
Azimuth
Unknown
Elevation
Unknown
Doppler factor
Unknown
Orbital elements
Apogee altitude
199.057 km
Perigee altitude
182.287 km
Semi-major axis
6,568.809 km
Eccentricity
0.00128
Inclination
97.5157°
RAAN
237.0989°
Arg. of periapsis
277.1321°
True anomaly
82.99727°
Mean anomaly
82.8521°
Eccentric anomaly
82.92468°
Mean motion
4.07674 °/min
Orbital period
88.31 mins
BSTAR
0.0018278
Loading maneuver chart data...
Computing Atmospheric mass density...
Loading historical data...
Loading historical data...
Loading historical data...
Loading historical data...
Loading historical data...
Loading historical data...
Loading historical data...

Documentation

Showing up to 5 results
|